Location: Fermata del Sasso
(43.5167°N, 12.0833°E)
Time: 10:22:44
(UTC+00:00)

Daily predictions for brighter satellites

Satellite Brightness Start Highest point End
(mag) Time Altitude Azimuth Time Altitude Azimuth Time Altitude Azimuth
USA 267 3.6 15:59:38 10° E 16:05:48 46° NNE 16:11:58 10° NW
Cosmos 1140 Rocket 4.4 16:04:04 10° SSE 16:08:24 29° E 16:12:47 10° NE
Nadezhda 4 Rocket 4.1 16:02:30 10° S 16:08:49 84° E 16:15:09 10° N
Cosmos 2369 Rocket 3.4 16:05:43 10° N 16:09:44 20° NE 16:13:45 10° E
SL-16 R/B 2.3 16:11:38 10° S 16:17:13 62° ESE 16:22:51 10° NNE
Envisat 3.7 16:12:59 10° SE 16:17:24 31° ENE 16:21:49 10° N
PSLV R/B 3.9 16:14:50 10° NNE 16:18:58 73° ESE 16:23:02 10° S
STARLINK-43 3.4 16:15:22 10° SW 16:19:03 68° SE 16:22:37 11° ENE
Cosmos 1743 3.6 16:15:45 10° NNE 16:19:07 27° ENE 16:22:28 10° SE
Helios 1A Rocket 4.0 16:18:15 10° S 16:22:13 50° W 16:26:11 10° NNW
Cosmos 2237 Rocket 3.2 16:18:41 10° SW 16:24:09 47° WNW 16:29:39 10° NNE
BREEZE-M DEB (TANK) 2.1 16:19:17 10° WNW 16:24:57 71° NNE 16:27:26 10° ESE
Cosmos 407 Rocket 3.6 16:20:11 10° S 16:25:17 60° ESE 16:30:29 10° NNE
Cosmos 1943 Rocket 2.9 16:23:50 10° N 16:28:45 30° NE 16:33:35 10° ESE
Cosmos 2219 Rocket 4.3 16:25:46 10° W 16:29:46 19° NW 16:33:47 10° N
Cosmos 2026 Rocket 4.0 16:23:58 10° SSE 16:29:50 55° E 16:35:45 10° NNE
Feng Yun 1-1 Rocket 4.1 16:24:33 10° SSE 16:29:54 73° ENE 16:35:20 10° N
Cosmos 1536 3.6 16:26:55 10° NNW 16:30:51 56° W 16:34:43 10° S
STARLINK-67 4.3 16:30:29 10° NNW 16:32:30 18° NNE 16:33:30 15° NE
CZ-4C R/B 3.4 16:31:05 10° SSE 16:34:37 20° ESE 16:37:20 14° ENE
Cosmos 1782 Rocket 3.6 16:31:15 10° N 16:35:33 57° E 16:39:48 10° SSE
Cosmos 2333 Rocket 4.4 16:32:11 10° W 16:36:04 18° NW 16:39:58 10° N
Lacrosse 5 rocket 3.5 16:34:10 10° NW 16:36:41 15° NNW 16:39:09 10° NNE
AQUARIUS 4.1 16:32:20 10° SSE 16:36:49 76° ENE 16:41:19 10° N
SL-4 R/B 3.1 16:38:20 10° NW 16:41:37 27° NNE 16:43:44 17° ENE
STARLINK-80 3.5 16:39:21 10° SW 16:43:06 61° SE 16:45:38 19° ENE
Lacrosse 5 2.8 16:40:37 10° S 16:45:07 32° SE 16:48:08 18° ENE
Cosmos 1703 Rocket 3.7 16:40:48 10° S 16:45:16 81° W 16:49:47 10° N
CSL-04 Rocket 4.5 16:41:25 10° ESE 16:45:46 27° ENE 16:50:09 10° N
Okean 1 3.3 16:43:32 10° S 16:47:27 61° E 16:51:23 10° NNE
Cosmos 405 Rocket 3.5 16:49:26 10° NNE 16:52:37 26° ENE 16:55:48 10° SE
Okean 2 Rocket 3.5 16:48:54 10° N 16:53:07 39° ENE 16:57:20 10° SE
Aureole 1 Rocket 4.3 16:51:16 10° WSW 16:53:55 26° WNW 16:56:53 10° N
NOAA 12 4.0 16:49:04 10° SSE 16:54:21 77° ENE 16:59:38 10° N
BREEZE-M R/B 3.2 16:52:58 10° WNW 16:58:01 45° N 16:59:21 28° ENE
Cosmos 2221 Rocket 3.8 16:53:50 10° SSE 16:58:07 48° E 17:02:14 11° NNE
Sich 1 Rocket 3.4 16:55:39 10° N 17:00:03 79° E 17:04:26 10° S
Cosmos 1441 Rocket 4.3 16:59:38 10° NNW 17:03:17 46° W 17:06:52 10° S
H-2A R/B 3.8 17:00:25 10° S 17:03:58 46° W 17:07:32 10° NNW
SMAP 4.0 17:00:52 10° S 17:05:23 50° W 17:09:56 10° NNW
Meteor 1-19 Rocket 4.1 17:01:04 10° S 17:06:28 62° E 17:11:51 10° NNE
CSL-04 Debris 4.5 17:03:39 10° SE 17:08:44 42° ENE 17:13:49 10° N
Okean 1-7 3.9 17:06:15 10° SSW 17:10:29 50° WNW 17:14:47 10° N
Aureole 3 Rocket 3.7 17:13:27 25° SE 17:13:27 25° SE 17:15:10 10° SSE
Cosmos 1241 Rocket 4.4 17:05:57 10° SSW 17:12:19 80° ESE 17:17:01 19° NE
CZ-4 R/B 1.4 17:08:58 10° SSE 17:12:42 48° ENE 17:16:25 10° N
USA 215 3.7 17:10:07 17° NE 17:15:04 56° NNW 17:21:24 10° WSW
Meteor 2-13 Rocket 4.4 17:09:38 10° S 17:15:33 60° E 17:21:32 10° NNE
YAOGAN 6 2.4 17:12:30 10° SSE 17:16:02 73° ENE 17:19:39 10° N
Cosmos 1867 3.8 17:10:56 10° NW 17:16:22 71° WSW 17:21:46 10° SSE
Cosmos 1674 Rocket 4.5 17:13:15 10° SSE 17:16:24 29° ESE 17:16:24 29° ESE
BREEZE-M DEB (TANK) 1.9 17:13:52 10° WNW 17:17:55 75° NNE 17:18:32 52° E
Abrixas rocket 1.9 17:16:23 10° WSW 17:19:24 71° NNW 17:19:38 66° NNE
Cosmos 1515 3.6 17:16:56 10° S 17:20:40 63° E 17:21:57 37° NNE
EP 2 4.4 17:20:51 10° SSW 17:23:49 80° SE 17:23:50 80° ESE
Cosmos 1300 Rocket 3.4 17:20:44 10° N 17:25:01 60° E 17:29:16 10° SSE
Cosmos 1975 2.9 17:21:33 10° NNW 17:25:33 76° W 17:29:33 10° S
Cosmos 676 Rocket 4.1 17:21:37 10° SSW 17:26:47 76° WNW 17:30:53 17° NNE
COSMO-SKYMED 1 2.5 17:23:32 17° NNE 17:26:56 89° ESE 17:31:16 10° SSW
YAOGAN 1 2.5 17:23:58 10° SSE 17:28:12 59° ENE 17:32:28 10° N
STARLINK-48 3.4 17:24:38 10° WSW 17:28:31 79° NW 17:29:17 55° NE
Cosmos 1655 Rocket 3.9 17:23:11 10° S 17:29:28 78° E 17:35:44 10° N
Cosmos 1954 Rocket 4.1 17:27:01 10° SSW 17:32:10 72° WNW 17:36:01 18° NNE
STARLINK-70 4.5 17:31:37 10° SSW 17:34:53 34° SSE 17:34:53 34° SSE
Okean-O 3.9 17:31:42 10° S 17:35:54 43° W 17:40:09 10° NNW
Meteor 2-9 Rocket 4.3 17:30:11 10° NNW 17:36:04 83° W 17:41:47 10° S
Okean 3 3.4 17:32:15 10° S 17:36:25 82° W 17:38:35 28° N
NOAA 11 4.2 17:31:23 10° SSE 17:36:43 57° ENE 17:42:05 10° N
STARLINK-68 4.4 17:33:18 10° SSW 17:36:38 36° SSE 17:36:38 36° SSE
Meteor 1-12 Rocket 4.1 17:31:35 10° N 17:37:27 72° ENE 17:43:08 10° SSE
STARLINK-58 4.4 17:34:54 10° SSW 17:38:07 35° SSE 17:38:07 35° SSE
STARLINK-62 4.3 17:36:33 10° SSW 17:39:47 37° SSE 17:39:47 37° SSE
Cosmos 1943 3.1 17:35:37 10° S 17:41:11 64° ESE 17:42:49 44° NE
STARLINK-63 4.4 17:38:08 10° SSW 17:41:16 36° SSE 17:41:16 36° SSE
IRIDIUM 104 4.2 17:39:44 10° S 17:44:56 76° E 17:48:55 18° N
STARLINK-72 4.5 17:41:21 10° SSW 17:44:20 36° SSE 17:44:20 36° SSE
Cosmos 1656 Rocket 4.2 17:41:55 10° NNW 17:46:04 39° NNE 17:46:04 39° NNE
STARLINK-59 4.4 17:44:38 10° SSW 17:47:38 38° S 17:47:38 38° S
USA 267 3.5 17:42:08 10° SE 17:48:38 67° SW 17:55:10 10° NW
STARLINK-55 4.5 17:47:55 10° SSW 17:50:49 38° S 17:50:49 38° S
STARLINK-28 4.5 17:49:33 10° SSW 17:52:26 39° S 17:52:26 39° S
Meteor 1-13 Rocket 4.0 17:48:21 10° S 17:53:56 76° E 17:55:45 44° NNE
IRIDIUM 114 4.2 17:48:52 10° S 17:54:05 88° W 17:58:03 18° N
Cosmos 2369 Rocket 2.3 17:48:45 10° NNW 17:54:24 77° WSW 18:00:03 10° SSE
NOSS 3-1 (C) 4.0 17:47:41 10° NW 17:55:17 77° NE 18:01:11 23° SE
S3M 4.3 17:52:33 10° NNW 17:58:40 66° W 18:04:42 10° S
Cosmos 2266 Rocket 3.9 17:53:27 10° S 17:59:52 89° E 18:05:44 13° N
Cosmos 1741 Rocket 3.8 17:54:56 10° SSW 18:00:10 80° ESE 18:00:29 76° ENE
SL-16 R/B 4.2 17:57:17 10° WSW 18:01:48 23° NW 18:06:14 10° N
IRIDIUM 103 4.4 17:58:03 10° S 18:03:15 74° W 18:07:13 18° N
STARLINK-61 4.3 18:00:05 10° SW 18:03:06 50° WSW 18:03:06 50° WSW
Cosmos 2151 Rocket 4.2 18:00:31 10° NNW 18:04:49 54° W 18:09:05 10° S
Cosmos 468 Rocket 3.8 17:59:50 10° NNW 18:04:48 78° NNE 18:04:48 78° NNE
Cosmos 1461 4.0 18:01:44 10° SSW 18:04:07 36° SSW 18:04:07 36° SSW
USA 81 3.9 18:01:18 10° S 18:06:35 89° ESE 18:07:16 69° N
USA 229 DEB 3.8 17:59:21 10° NW 18:06:40 89° NE 18:10:45 31° SE
USA 229 3.8 17:59:27 10° NW 18:06:46 88° NE 18:10:44 31° SE
Cosmos 1603 4.1 18:03:01 10° SW 18:08:40 61° WNW 18:10:51 37° N
NOSS 3-1 (A) 4.0 18:04:44 10° NNW 18:12:16 69° NE 18:14:14 53° ESE
Cosmos 1943 Rocket 3.2 18:07:20 10° NW 18:12:40 45° WSW 18:17:54 10° S
Cosmos 1850 Rocket 4.1 18:11:27 10° SSW 18:16:42 72° WNW 18:17:00 70° NW
SL-4 R/B 4.0 18:17:44 10° NW 18:19:21 24° NW 18:19:21 24° NW
CZ-4C R/B 2.4 18:17:22 10° SW 18:22:21 61° NW 18:22:33 61° NW
Lacrosse 5 2.6 18:22:58 10° WSW 18:27:22 48° WNW 18:27:22 48° WNW
CZ-3B R/B 3.9 18:31:20 10° SSW 18:33:02 15° S 18:33:02 15° S
Gbstr 26 Del rocket 4.3 18:39:08 10° WSW 18:45:06 58° WNW 18:45:06 58° WNW
Cosmos 2315 Rocket 4.5 18:41:36 10° NNW 18:47:46 58° W 18:53:51 10° S
CZ-4 R/B 4.5 18:46:17 10° WSW 18:48:00 13° W 18:49:44 10° WNW
Cosmos 2344 4.5 18:40:13 10° NW 18:50:15 84° SW 18:58:09 30° SSE
USA 215 4.5 18:57:28 30° NNW 18:57:28 30° NNW 19:02:44 10° WNW
